sat.trackr.live / text

‹ back to catalog

GSAT0210 (GALILEO 13)

NORAD 41550 · 2016-030B

PAYLOAD ACTIVE UNKNOWN

§ Identity

Operator
Country
ESA
Launch date
2016-05-24
Launch site
FRGUI
Launch vehicle
Mass (kg)
RCS (m²)
15.89

Purposes: earth_obs, nav

External: N2YO · Heavens-Above · Gunter

§ Orbital elements

Epoch: 2026-05-20T11:37:22.194624Z

Period
844.70 min
Inclination
55.1019°
Eccentricity
0.0003239
Mean motion
1.70473990 rev/d
Perigee alt
23,212.6 km
Apogee alt
23,231.8 km
Semi-major
29,600.3 km
B*
0.0000e+0
RAAN
222.4550°
Arg perigee
230.5838°
Mean anomaly
129.4530°
Rev number
6,219

§ Raw data

GSAT0210 (GALILEO 13)1 41550U 16030B   26140.48428466  .00000004  00000+0  00000+0 0  99922 41550  55.1019 222.4550 0003239 230.5838 129.4530  1.70473990 62196

JSON: /api/v1/satellites/41550 · /tle

For live sub-satellite position, see the globe view (requires WebGL).

§ Visibility from observer

Set your observer location to see the next 7 days of passes ≥ 10°. The values pass through the URL so the page stays shareable.

No JS? Fill the form by hand. The geolocation button needs JavaScript.